Regional Weather Roundup
Issued by NWS

Home | Current Version | Previous Version | Text Only | Print | Product List | Glossary Off
Versions: 1 2 3 4 5 6 7 8 9 10 11 12 13 14 15 16 17 18 19 20 21 22 23 24 25 26 27

000
ASUS45 KBOI 191610
RWRID

IDAHO REGIONAL WEATHER ROUNDUP
NATIONAL WEATHER SERVICE BOISE ID
1000 AM MDT TUE SEP 19 2017

NOTE: "FAIR" INDICATES FEW OR NO CLOUDS BELOW 12000 FEET
WITH NO SIGNIFICANT WEATHER AND/OR OBSTRUCTIONS TO VISIBILITY

IDZ012-014-191700-
SOUTHWEST IDAHO


CITY           SKY/WX    TMP DP  RH WIND       PRES   REMARKS
BOISE          LGT RAIN  50  40  68 SW8       29.90R
CALDWELL       LGT RAIN  50  43  77 S5        29.89R
MOUNTAIN HOME  SUNNY     50  44  78 SE5       29.92R
$$

IDZ016-017-191700-
SOUTHCENTRAL IDAHO


CITY           SKY/WX    TMP DP  RH WIND       PRES   REMARKS
BURLEY         MOSUNNY   49  37  63 W10       29.88R
JEROME         LGT RAIN  42  41  96 NW13      29.92R
TWIN FALLS     CLOUDY    44  40  85 NW15      29.92R
$$

IDZ019>023-191700-
SOUTHEAST IDAHO


CITY           SKY/WX    TMP DP  RH WIND       PRES   REMARKS
IDAHO FALLS    PTSUNNY   44  37  76 SW21G29   29.84R
POCATELLO      MOSUNNY   48  40  73 SW21      29.88R
REXBURG        CLOUDY    42  36  79 S14G23    29.82R
$$

IDZ006-010-011-018-031-032-191700-
CENTRAL IDAHO MOUNTAINS


CITY           SKY/WX    TMP DP  RH WIND       PRES   REMARKS
MCCALL         CLOUDY    39  36  89 S6        29.81R WCI  35
HAILEY         PTSUNNY   41  36  81 E9        29.86R
STANLEY          N/A     34  32  92 SE3       29.83R
SALMON         CLOUDY    44  39  82 NW5       29.79S
CHALLIS        CLOUDY    39  38  96 CALM      29.80R
$$

IDZ002-004-006-007-026-191700-
NORTHERN IDAHO


CITY           SKY/WX    TMP DP  RH WIND       PRES   REMARKS
LEWISTON       LGT RAIN  51  44  77 MISG      29.77R
LOWELL           N/A     46  43  89 CALM      29.83R
COEUR D`ALENE  RAIN      44  40  85 S6        29.73S
MULLAN PASS    SNOW      31  30  96 VRB3      29.70R VSB 1/4
$$




USA.gov is the U.S. government's official web portal to all federal, state and local government web resources and services.